User: anonymous   Login
Location: Newark
(39.9581°N, 97.2014°W)
Time: 23:05:26
(UTC+00:00)
Language:

A-11 Canister half - Orbit

View from above orbital plane
View from above orbital plane
View from above satellite
View from above satellite

Ground track
Ground track

The orbit data is extracted from the following two-line orbital elements,

1    51U 60009C   20054.88059080 -.00000116  00000-0 -30657-3 0  9994
2    51  47.2148 341.8776 0103993 183.0290 176.9878 12.18270494650115
Epoch (UTC): 23 February 2020 21:08:03
Eccentricity: 0.0103993
inclination: 47.2148°
perigee height: 1517 km
apogee height: 1683 km
right ascension of ascending node: 341.8776°
argument of perigee: 183.0290°
revolutions per day: 12.18270494
mean anomaly at epoch: 176.9878°
orbit number at epoch: 65011

The dashed part of the orbit path shows where the satellite is in the earth's shadow,  

DLR